| time (UTC) | temp F | wind direction | speed MPH | gust MPH | rain 1hr in | rain 24hr in | rain mn in | humidity % | barometer mb |
| 20260510114547 | 53 | 189 | 3.0 | 8.0 | 0.00 | 0.38 | 0.00 | 90 | 1011.6 |
| 20260510113038 | 53 | 176 | 2.0 | 9.0 | 0.00 | 0.38 | 0.00 | 90 | 1011.5 |
| 20260510111539 | 53 | 167 | 3.0 | 6.0 | 0.00 | 0.38 | 0.00 | 91 | 1011.6 |
| 20260510110042 | 53 | 196 | 1.0 | 7.0 | 0.00 | 0.38 | 0.00 | 91 | 1011.7 |
| 20260510104547 | 52 | 173 | 2.0 | 7.0 | 0.00 | 0.38 | 0.00 | 91 | 1011.5 |
| 20260510103044 | 52 | 169 | 1.0 | 11.0 | 0.00 | 0.38 | 0.00 | 91 | 1011.2 |
| 20260510101538 | 52 | 0 | 3.0 | 9.0 | 0.00 | 0.38 | 0.00 | 91 | 1010.9 |
| 20260510100044 | 52 | 188 | 0.0 | 7.0 | 0.00 | 0.38 | 0.00 | 92 | 1010.6 |
| 20260510094546 | 52 | 176 | 2.0 | 8.0 | 0.00 | 0.38 | 0.00 | 92 | 1010.6 |
| 20260510093037 | 51 | 168 | 2.0 | 6.0 | 0.00 | 0.38 | 0.00 | 92 | 1010.4 |
| 20260510091545 | 51 | 167 | 1.0 | 4.0 | 0.00 | 0.38 | 0.00 | 92 | 1010.2 |
| 20260510090045 | 51 | 0 | 0.0 | 2.0 | 0.00 | 0.38 | 0.00 | 92 | 1009.9 |
| 20260510084539 | 51 | 0 | 1.0 | 5.0 | 0.00 | 0.38 | 0.00 | 91 | 1010.2 |
| 20260510083051 | 52 | 175 | 3.0 | 6.0 | 0.00 | 0.38 | 0.00 | 91 | 1010.4 |
| 20260510081541 | 52 | 178 | 1.0 | 5.0 | 0.00 | 0.38 | 0.00 | 91 | 1010.2 |
| 20260510080038 | 52 | 148 | 1.0 | 3.0 | 0.00 | 0.38 | 0.00 | 91 | 1010.1 |
| 20260510074547 | 52 | 133 | 1.0 | 6.0 | 0.00 | 0.38 | 0.00 | 91 | 1010.3 |
| 20260510073050 | 52 | 181 | 1.0 | 4.0 | 0.00 | 0.38 | 0.00 | 90 | 1010.7 |
| 20260510071540 | 52 | 153 | 0.0 | 4.0 | 0.00 | 0.38 | 0.00 | 90 | 1010.8 |
| 20260510070040 | 52 | 0 | 1.0 | 5.0 | 0.00 | 0.38 | 0.00 | 90 | 1011.1 |
| 20260510064540 | 52 | 192 | 4.0 | 8.0 | 0.00 | 0.38 | 0.00 | 91 | 1011.1 |
| 20260510063038 | 52 | 0 | 0.0 | 5.0 | 0.00 | 0.38 | 0.00 | 90 | 1011.0 |
| 20260510061537 | 52 | 184 | 1.0 | 4.0 | 0.00 | 0.38 | 0.00 | 90 | 1010.7 |
| 20260510060044 | 52 | 190 | 0.0 | 4.0 | 0.00 | 0.38 | 0.00 | 90 | 1010.2 |
| 20260510054541 | 52 | 182 | 3.0 | 8.0 | 0.00 | 0.38 | 0.00 | 91 | 1010.2 |
| 20260510053038 | 52 | 150 | 1.0 | 8.0 | 0.00 | 0.38 | 0.00 | 91 | 1010.2 |
| 20260510051539 | 51 | 180 | 0.0 | 5.0 | 0.00 | 0.38 | 0.00 | 91 | 1010.4 |
| 20260510050039 | 51 | 201 | 0.0 | 2.0 | 0.00 | 0.38 | 0.00 | 91 | 1010.4 |
| 20260510044536 | 51 | 201 | 1.0 | 3.0 | 0.00 | 0.38 | 0.00 | 90 | 1010.4 |
| 20260510043043 | 51 | 0 | 0.0 | 1.0 | 0.00 | 0.38 | 0.00 | 90 | 1010.5 |
| 20260510041543 | 52 | 0 | 0.0 | 1.0 | 0.00 | 0.38 | 0.00 | 90 | 1010.3 |
| 20260510040039 | 52 | 0 | 0.0 | 3.0 | 0.00 | 0.38 | 0.00 | 90 | 1010.5 |
| 20260510034538 | 52 | 0 | 0.0 | 3.0 | 0.00 | 0.38 | 0.38 | 90 | 1010.4 |
| 20260510033038 | 52 | 0 | 0.0 | 3.0 | 0.00 | 0.38 | 0.38 | 89 | 1010.2 |
| 20260510031537 | 52 | 109 | 0.0 | 2.0 | 0.00 | 0.38 | 0.38 | 89 | 1010.0 |
| 20260510030052 | 52 | 0 | 0.0 | 2.0 | 0.00 | 0.38 | 0.38 | 89 | 1010.2 |
| 20260510024542 | 52 | 96 | 0.0 | 2.0 | 0.00 | 0.38 | 0.38 | 89 | 1010.5 |
| 20260510023037 | 53 | 0 | 0.0 | 1.0 | 0.00 | 0.38 | 0.38 | 89 | 1010.5 |
| 20260510021537 | 52 | 0 | 0.0 | 3.0 | 0.00 | 0.38 | 0.38 | 89 | 1010.4 |
| 20260510020037 | 52 | 86 | 0.0 | 2.0 | 0.00 | 0.38 | 0.38 | 90 | 1010.5 |
| 20260510014541 | 52 | 80 | 0.0 | 2.0 | 0.00 | 0.38 | 0.38 | 90 | 1010.3 |
| 20260510013049 | 52 | 0 | 0.0 | 2.0 | 0.00 | 0.38 | 0.38 | 90 | 1010.4 |
| 20260510011545 | 52 | 79 | 0.0 | 4.0 | 0.00 | 0.38 | 0.38 | 91 | 1010.4 |
| 20260510010038 | 52 | 0 | 0.0 | 1.0 | 0.00 | 0.38 | 0.38 | 91 | 1010.4 |
| 20260510004537 | 52 | 0 | 0.0 | 1.0 | 0.00 | 0.38 | 0.38 | 91 | 1010.2 |
| 20260510003041 | 52 | 0 | 0.0 | 0.0 | 0.00 | 0.38 | 0.38 | 90 | 1010.2 |
| 20260510001543 | 53 | 0 | 0.0 | 1.0 | 0.00 | 0.38 | 0.38 | 89 | 1009.7 |
| 20260510000045 | 53 | 0 | 0.0 | 1.0 | 0.00 | 0.38 | 0.38 | 89 | 1009.7 |
| 20260509234542 | 54 | 167 | 0.0 | 4.0 | 0.00 | 0.38 | 0.38 | 88 | 1009.5 |
| 20260509233038 | 54 | 0 | 0.0 | 4.0 | 0.00 | 0.38 | 0.38 | 88 | 1009.1 |
| 20260509231543 | 54 | 0 | 0.0 | 6.0 | 0.00 | 0.38 | 0.38 | 88 | 1008.9 |
| 20260509230037 | 54 | 175 | 2.0 | 6.0 | 0.00 | 0.38 | 0.38 | 89 | 1008.9 |
| 20260509224544 | 55 | 0 | 1.0 | 5.0 | 0.00 | 0.38 | 0.38 | 89 | 1009.2 |
| 20260509223042 | 55 | 174 | 0.0 | 6.0 | 0.00 | 0.38 | 0.38 | 90 | 1009.3 |
| 20260509221542 | 54 | 183 | 2.0 | 5.0 | 0.00 | 0.38 | 0.38 | 90 | 1009.1 |
| 20260509220040 | 54 | 188 | 2.0 | 5.0 | 0.00 | 0.38 | 0.38 | 91 | 1009.1 |
| 20260509214537 | 54 | 161 | 3.0 | 6.0 | 0.00 | 0.38 | 0.38 | 92 | 1009.4 |
| 20260509213038 | 54 | 142 | 2.0 | 9.0 | 0.00 | 0.38 | 0.38 | 92 | 1009.5 |
| 20260509211537 | 53 | 132 | 1.0 | 8.0 | 0.00 | 0.38 | 0.38 | 93 | 1009.5 |
| 20260509210058 | 53 | 0 | 3.0 | 9.0 | 0.00 | 0.38 | 0.38 | 94 | 1009.5 |
| 20260509204543 | 53 | 182 | 2.0 | 10.0 | 0.00 | 0.38 | 0.38 | 94 | 1009.8 |
| 20260509203041 | 53 | 0 | 1.0 | 5.0 | 0.00 | 0.38 | 0.38 | 95 | 1009.9 |
| 20260509201538 | 52 | 184 | 0.0 | 5.0 | 0.00 | 0.38 | 0.38 | 95 | 1010.0 |
| 20260509200037 | 52 | 85 | 0.0 | 7.0 | 0.02 | 0.38 | 0.38 | 95 | 1010.3 |
| 20260509194537 | 51 | 168 | 1.0 | 7.0 | 0.03 | 0.38 | 0.38 | 94 | 1010.6 |
| 20260509193045 | 51 | 0 | 2.0 | 6.0 | 0.04 | 0.38 | 0.38 | 94 | 1010.7 |
| 20260509191541 | 51 | 221 | 0.0 | 3.0 | 0.05 | 0.38 | 0.38 | 94 | 1010.6 |
| 20260509190038 | 50 | 195 | 0.0 | 3.0 | 0.04 | 0.36 | 0.36 | 95 | 1010.9 |
| 20260509184550 | 50 | 73 | 0.0 | 4.0 | 0.03 | 0.35 | 0.35 | 94 | 1011.1 |
| 20260509183038 | 50 | 0 | 0.0 | 4.0 | 0.03 | 0.34 | 0.34 | 94 | 1011.0 |
| 20260509181550 | 50 | 163 | 1.0 | 5.0 | 0.03 | 0.33 | 0.33 | 94 | 1010.9 |
| 20260509180045 | 50 | 187 | 1.0 | 4.0 | 0.02 | 0.32 | 0.32 | 94 | 1011.0 |
| 20260509174539 | 49 | 0 | 1.0 | 4.0 | 0.03 | 0.32 | 0.32 | 94 | 1011.1 |
| 20260509173042 | 49 | 0 | 1.0 | 4.0 | 0.02 | 0.31 | 0.31 | 94 | 1011.2 |
| 20260509171538 | 48 | 192 | 0.0 | 4.0 | 0.02 | 0.30 | 0.30 | 94 | 1011.5 |
| 20260509170046 | 48 | 0 | 0.0 | 4.0 | 0.03 | 0.30 | 0.30 | 94 | 1011.4 |
| 20260509164545 | 48 | 123 | 0.0 | 5.0 | 0.03 | 0.29 | 0.29 | 94 | 1011.5 |
| 20260509163043 | 47 | 0 | 0.0 | 2.0 | 0.04 | 0.29 | 0.29 | 94 | 1011.8 |
| 20260509161538 | 47 | 0 | 1.0 | 4.0 | 0.04 | 0.28 | 0.28 | 94 | 1012.1 |
| 20260509160039 | 47 | 128 | 0.0 | 3.0 | 0.04 | 0.27 | 0.27 | 94 | 1012.4 |
| 20260509154543 | 47 | 0 | 0.0 | 3.0 | 0.06 | 0.26 | 0.26 | 94 | 1012.5 |
| 20260509153059 | 47 | 193 | 0.0 | 1.0 | 0.07 | 0.25 | 0.25 | 94 | 1012.9 |
| 20260509151549 | 47 | 0 | 0.0 | 2.0 | 0.09 | 0.24 | 0.24 | 94 | 1013.1 |
| 20260509150047 | 46 | 193 | 1.0 | 3.0 | 0.10 | 0.23 | 0.23 | 93 | 1013.2 |
| 20260509144538 | 46 | 0 | 1.0 | 4.0 | 0.09 | 0.20 | 0.20 | 93 | 1013.0 |
| 20260509143040 | 46 | 0 | 0.0 | 1.0 | 0.10 | 0.18 | 0.18 | 93 | 1013.0 |
| 20260509141538 | 46 | 0 | 0.0 | 0.0 | 0.08 | 0.15 | 0.15 | 93 | 1013.0 |
| 20260509140051 | 46 | 193 | 0.0 | 1.0 | 0.06 | 0.13 | 0.13 | 93 | 1012.9 |
| 20260509134545 | 46 | 0 | 0.0 | 2.0 | 0.05 | 0.11 | 0.11 | 92 | 1012.9 |
| 20260509133043 | 46 | 0 | 0.0 | 1.0 | 0.03 | 0.08 | 0.08 | 92 | 1012.7 |
| 20260509131546 | 46 | 0 | 0.0 | 0.0 | 0.05 | 0.07 | 0.07 | 91 | 1012.6 |
| 20260509130043 | 46 | 0 | 0.0 | 1.0 | 0.07 | 0.07 | 0.07 | 91 | 1012.9 |
| 20260509124538 | 46 | 0 | 0.0 | 2.0 | 0.06 | 0.06 | 0.06 | 90 | 1013.0 |
| 20260509123038 | 46 | 0 | 0.0 | 2.0 | 0.05 | 0.05 | 0.05 | 90 | 1012.9 |
| 20260509121540 | 46 | 0 | 0.0 | 0.0 | 0.02 | 0.02 | 0.02 | 89 | 1013.0 |
| 20260509120048 | 46 | 0 | 0.0 | 3.0 | 0.00 | 0.00 | 0.00 | 88 | 1013.1 |